Station PBPA2 - Point Bishop, AK Image indicating link to RSS feed of recent meteorological observations for station PBPA2


Conditions at PBPA2 as of
(4:10 pm AKDT on 07/13/2024)
0010 GMT on 07/14/2024:
     

Click on the graph icon in the table below to see a time series plot of the last five days of that observation.

5-day plot - Wind Direction Wind Direction (WDIR): SW ( 220 deg true )
5-day plot - Wind Speed Wind Speed (WSPD): 1.0 kts
5-day plot - Wind Gust Wind Gust (GST): 7.0 kts
5-day plot - Atmospheric Pressure Atmospheric Pressure (PRES):30.12 in
5-day plot - Air Temperature Air Temperature (ATMP): 53.8 °F
5-day plot - Dew Point Dew Point (DEWP): 52.0 °F
5-day plot - Wind Speed at 10 Meters Wind Speed at 10 meters (WSPD10M): 1.9 kts
5-day plot - Wind Speed at 20 Meters Wind Speed at 20 meters (WSPD20M): 1.9 kts
5-day plot -  Wind Speed, Wind Gust and Atmospheric Pressure Combined plot of Wind Speed, Gust, and Air Pressure
Previous observations
TIME
(AKDT)
5-day plot - Wind Direction
WDIR
 
5-day plot - Wind Speed
WSPD
kts
5-day plot - Wind Gust
GST
kts
5-day plot - Wave Height
WVHT
ft
5-day plot - Dominant Wave Period
DPD
sec
5-day plot - Average Wave Period
APD
sec
5-day plot - Mean Wave Direction
MWD
 
5-day plot - Atmospheric Pressure
PRES
in
5-day plot - Pressure Tendency
PTDY
in
5-day plot - Air Temperature
ATMP
°F
5-day plot - Water Temperature
WTMP
°F
5-day plot - Dew Point
DEWP
°F
5-day plot - Salinity
SAL
psu
5-day plot - Visibility
VIS
nmi
5-day plot - Tide (above MLLW)
TIDE
ft
2024-07-13 03:10 pm- 0.0 2.9----30.12- 54.0- 52.0---
2024-07-13 02:10 pm- 0.0 2.9----30.12- 53.8- 51.8---
2024-07-13 01:10 pm- 0.0 6.0----30.12- 53.8- 51.4---
2024-07-13 12:10 pm S 1.9 8.0----30.13- 53.4- 51.1---
2024-07-13 11:10 amNNW 1.9 5.1----30.13- 53.1- 50.7---
2024-07-13 10:10 am- 0.0 1.9----30.13- 53.4- 51.3---
2024-07-13 09:10 amSSE 1.0 2.9----30.13- 53.4- 51.4---
2024-07-13 08:10 am- 0.0 1.9----30.13- 53.1- 51.4---
2024-07-13 07:10 am NW 1.0 4.1----30.13- 52.9- 51.4---
2024-07-13 06:10 am- 0.0 2.9----30.13- 52.5- 51.1---
2024-07-13 05:10 amSSW 1.0 9.9----30.13- 52.3- 50.9---
2024-07-13 04:10 am S 4.1 7.0----30.13- 52.0- 50.5---
2024-07-13 03:10 am N 1.0 2.9----30.13- 52.3- 51.1---
2024-07-13 02:10 amSSW 1.0 12.0----30.13- 52.9- 51.4---
2024-07-13 01:10 am SW 1.0 9.9----30.14- 53.1- 51.4---
2024-07-13 12:10 amSSW 1.9 11.1----30.14- 53.6- 52.0---
2024-07-12 11:10 pmSSW 1.9 11.1----30.13- 53.6- 51.8---
2024-07-12 10:10 pm SW 1.9 9.9----30.13- 53.8- 52.0---
2024-07-12 09:10 pm N 1.0 6.0----30.13- 54.0- 52.2---
2024-07-12 08:10 pmSSW 1.9 9.9----30.13- 54.1- 52.2---
2024-07-12 07:10 pm NE 1.0 2.9----30.15- 52.2- 49.1---
2024-07-12 06:10 pm- 0.0 1.9----30.15- 54.5- 51.6---
2024-07-12 05:10 pmSSW 1.9 7.0----30.16- 55.4- 51.6---